Location: Krasnoyarskiy Pitomnik
(51.1333°N, 71.6167°E)
Time: 08:26:58
(UTC+00:00)

USA 215 - Pass Details

Date: 22 October 2021
Orbit: 1099 x 1109 km, 123.0° (Epoch: 20 November)

Event Time Altitude Azimuth Distance (km) Brightness Sun altitude
Exits shadow 15:15:26 47° 34° (NNE) 1,421 3.7 -30.0°
Maximum altitude 15:16:40 54° 358° (N) 1,322 3.7 -30.2°
Drops below altitude 10° 15:22:59 10° 283° (WNW) 2,966 6.4 -31.1°
Sets 15:25:31 0° 279° (W) 3,925 7.2 -31.4°
